Weather in Novyye Shimkusy

Russia / Chuvash Republic     55°09′24″N   47°45′58″E
temp.,
°C
wind,
m/s
gust,
m/s
humid.,
%
clouds,
%
prec.,
mm/h
press.,
hPa
HPBL,
m
18 may, tue
tue1800:00+19nne1169100 3.6 101611
03:00+18ese336965 3.6 101638
06:00+19e25785 0.0 1017179
09:00+23e56665 0.0 1017534
12:00+27e44525 0.0 1017974
15:00+28e45475 0.0 10171352
18:00+25e48645 0.0 1016303
21:00+20e413735 0.0 1017280
19 may, wed
wed1900:00+18e413705 0.0 1017295
03:00+16e412695 0.0 1017252
06:00+17ese512725 0.0 1017363
09:00+21ese79580 0.0 1017616
12:00+24ese78490 0.0 10171035
15:00+25ese78460 0.0 10161160
18:00+23ese510570 0.0 1015384
21:00+19ese513691 0.0 1016266
20 may, thu
thu2000:00+18ese514710 0.0 1016338
03:00+16ese5147425 0.0 1016363
06:00+17se6137075 0.0 1016466
09:00+21se8125592 0.0 1016740
12:00+24se911500 0.0 10151289
15:00+25se810501 0.0 10141986
18:00+23se712545 0.0 1014637
21:00+18se4116620 0.0 1014307
21 may, fri
fri2100:00+15sse2382100 0.1 101450
03:00+14sse3593100 1.3 1014119
06:00+16s468682 0.9 1014321
09:00+19ssw696414 0.9 10151336
12:00+22ssw685099 0.1 10152208
15:00+22sw71052100 0.2 10152141
18:00+19sw6117026 0.9 1016932
21:00+15sw41188100 1.6 1017406
22 may, sat
sat2200:00+13sw4118397 0.0 1019512
03:00+11wsw31086100 0.0 1020325
06:00+12wsw4782100 0.0 1022371
09:00+16w5766100 0.0 1023822
12:00+12wsw3591100 2.1 1025421
15:00+15se1169100 2.3 1024480
18:00+16e1378100 0.1 1022308
21:00+14e4885100 0.3 1021262